Torna al catalogo

COSMOS 1946

GLONASS

AttivoNavigazioneMEO
NORAD 19163·PAYLOAD·🇷🇺 Russia

Lanciato May 21, 1988 da Baikonur Cosmodrome

Loading…

Prossimi Passaggi (prossime 24 ore)

TLE

AggiornatoSource: Space-Track

Epoca: Sep 13, 2026, 11:54 UTC

1 19163U 88043A   26256.49592995 -.00000008  00000-0  00000-0 0  9995
2 19163  65.0232  70.5997 0004769  86.3299 277.2687  2.13102895297480

Traccia COSMOS 1946 in tempo reale con AllMySat

Download on the App Store